FW1480 Weather Reports


Display with metric or nautical units.
time (UTC)temp
F
wind
direction
speed
MPH
gust
MPH
rain 1hr
in
rain 24hr
in
rain mn
in
humidity
%
barometer
mb
20260831210254 72 231 0.0 0.0 0.00 0.01 0.00 78 1021.3
20260831205748 72 231 0.0 0.0 0.00 0.01 0.00 77 1021.2
20260831204230 73 231 0.0 1.0 0.00 0.01 0.00 76 1021.2
20260831203724 73 231 0.0 1.0 0.00 0.01 0.00 76 1021.2
20260831203218 74 137 0.0 0.0 0.00 0.01 0.00 76 1021.1
20260831202712 74 137 0.0 0.0 0.00 0.01 0.00 75 1021.3
20260831202207 74 137 0.0 0.0 0.00 0.01 0.00 73 1021.2
20260831201700 74 137 0.0 0.0 0.00 0.01 0.00 74 1021.2
20260831200648 74 137 0.0 0.0 0.00 0.01 0.00 75 1021.1
20260831200142 74 172 0.0 0.0 0.00 0.01 0.00 76 1021.2
20260831195635 74 172 0.0 0.0 0.00 0.01 0.00 76 1021.3
20260831194628 75 172 0.0 0.0 0.00 0.01 0.00 76 1021.5
20260831194128 75 172 0.0 0.0 0.00 0.01 0.00 75 1021.6
20260831193625 75 172 0.0 0.0 0.00 0.01 0.00 73 1021.9
20260831193122 75 172 0.0 0.0 0.00 0.01 0.00 72 1021.8
20260831192624 75 172 0.0 0.0 0.00 0.01 0.00 72 1021.7
20260831192122 75 172 0.0 1.0 0.00 0.01 0.00 73 1021.7
20260831191620 75 191 0.0 1.0 0.00 0.01 0.00 74 1022.0
20260831191120 75 162 0.0 1.0 0.00 0.01 0.00 73 1022.0
20260831190117 75 106 0.0 0.0 0.00 0.01 0.00 77 1022.2
20260831185616 74 106 0.0 0.0 0.00 0.01 0.00 76 1022.2
20260831185114 74 106 0.0 1.0 0.00 0.01 0.00 78 1022.2
20260831184611 74 106 0.0 1.0 0.00 0.01 0.00 76 1022.2
20260831184111 75 159 0.0 0.0 0.00 0.01 0.00 77 1022.2
20260831183110 74 159 0.0 0.0 0.00 0.01 0.00 77 1022.2
20260831182106 74 159 0.0 0.0 0.00 0.01 0.00 78 1022.2
20260831180606 74 159 0.0 0.0 0.00 0.01 0.00 79 1022.3
20260831180105 74 159 0.0 0.0 0.00 0.01 0.00 80 1022.3
20260831175105 73 159 0.0 0.0 0.00 0.01 0.00 81 1022.7
20260831174607 73 159 0.0 0.0 0.00 0.01 0.00 81 1022.8
20260831174100 73 159 0.0 0.0 0.00 0.01 0.00 80 1022.9
20260831173601 74 159 0.0 0.0 0.00 0.01 0.00 79 1022.9
20260831173100 74 159 0.0 0.0 0.00 0.01 0.00 77 1022.9
20260831172100 75 159 0.0 0.0 0.00 0.01 0.00 74 1022.6
20260831171601 75 159 0.0 0.0 0.00 0.01 0.00 73 1022.5
20260831171101 75 174 0.0 0.0 0.00 0.01 0.00 72 1022.6
20260831170600 75 127 0.0 0.0 0.00 0.01 0.00 73 1022.4
20260831165559 75 215 0.0 0.0 0.00 0.01 0.00 73 1022.6
20260831165059 76 251 0.0 0.0 0.00 0.01 0.00 74 1022.6
20260831164558 76 357 0.0 1.0 0.00 0.01 0.00 72 1022.5
20260831163557 76 219 0.0 2.0 0.00 0.01 0.00 71 1022.7
20260831163056 76 120 0.0 2.0 0.00 0.01 0.00 70 1022.8
20260831162554 76 199 0.0 1.0 0.00 0.01 0.00 71 1022.7
20260831162054 76 164 0.0 2.0 0.00 0.01 0.00 71 1022.8
20260831161554 76 161 0.0 2.0 0.00 0.01 0.00 71 1022.8
20260831160554 74 225 0.0 2.0 0.00 0.01 0.00 71 1023.0
20260831160054 74 196 0.0 2.0 0.00 0.01 0.00 72 1023.1
20260831155554 74 122 0.0 2.0 0.00 0.01 0.00 73 1023.0
20260831155056 74 115 0.0 1.0 0.00 0.01 0.00 73 1023.0
20260831154557 73 115 0.0 2.0 0.00 0.01 0.00 73 1023.1
20260831154050 74 115 0.0 2.0 0.00 0.01 0.00 73 1023.2
20260831153544 74 147 0.0 2.0 0.00 0.01 0.00 73 1023.2
20260831153038 74 116 0.0 2.0 0.00 0.01 0.00 73 1023.1
20260831152532 73 244 0.0 1.0 0.00 0.01 0.00 74 1023.0
20260831152027 73 214 0.0 1.0 0.00 0.01 0.00 75 1023.2
20260831150002 72 118 0.0 1.0 0.00 0.01 0.00 78 1023.2
20260831145456 72 103 0.0 1.0 0.00 0.01 0.00 78 1023.1
20260831144950 72 30 0.0 1.0 0.00 0.01 0.00 79 1023.2
20260831144446 71 265 0.0 2.0 0.00 0.01 0.00 79 1023.0
20260831143938 71 329 0.0 3.0 0.00 0.01 0.00 79 1023.1
20260831143433 71 22 0.0 3.0 0.00 0.01 0.00 80 1023.2
20260831142927 71 144 0.0 2.0 0.00 0.01 0.00 81 1023.2
20260831142421 71 132 0.0 1.0 0.00 0.01 0.00 81 1023.1
20260831141914 70 219 0.0 2.0 0.00 0.01 0.00 80 1023.0
20260831141408 70 20 0.0 2.0 0.00 0.01 0.00 80 1023.1
20260831140356 69 214 0.0 2.0 0.00 0.01 0.00 83 1023.0
20260831135850 69 1 0.0 2.0 0.00 0.01 0.00 85 1023.0
20260831135345 69 44 0.0 2.0 0.00 0.01 0.00 86 1022.9
20260831134838 68 45 0.0 2.0 0.00 0.01 0.00 86 1022.9
20260831133826 68 232 0.0 1.0 0.00 0.01 0.00 87 1022.9
20260831133321 67 89 0.0 1.0 0.00 0.01 0.00 89 1022.9
20260831132814 67 17 0.0 2.0 0.00 0.01 0.00 90 1022.9
20260831131802 67 48 0.0 2.0 0.00 0.01 0.00 93 1022.8
20260831131257 66 27 0.0 3.0 0.00 0.01 0.00 94 1022.9
20260831130756 66 31 0.0 3.0 0.00 0.01 0.00 95 1022.9
20260831130257 66 49 0.0 1.0 0.00 0.01 0.00 96 1022.7
20260831125757 66 49 0.0 1.0 0.00 0.01 0.00 97 1022.7
20260831125256 65 49 0.0 1.0 0.00 0.01 0.00 97 1022.8
20260831124756 65 27 0.0 1.0 0.00 0.01 0.00 97 1022.7
20260831124257 65 150 0.0 1.0 0.00 0.01 0.00 98 1022.8
20260831123756 65 97 0.0 2.0 0.00 0.01 0.00 98 1022.9
20260831122759 0 0.0 0.0 0.00 0.01 0.00 1023.0
20260831122257 0 0.0 0.0 0.00 0.01 0.00 1022.7
20260831120059 0 0.0 0.0 0.00 0.01 0.00 1022.6
20260831115005 0 0.0 0.0 0.00 0.01 0.00 1022.6
20260831114501 0 0.0 0.0 0.00 0.01 0.00 1022.6
20260831113903 0 0.0 0.0 0.00 0.01 0.00 1022.4
20260831113358 0 0.0 0.0 0.00 0.01 0.00 1022.6
20260831112853 0 0.0 0.0 0.00 0.01 0.00 1022.6
20260831112307 0 0.0 0.0 0.00 0.01 0.00 1022.6
20260831111758 0 0.0 0.0 0.00 0.01 0.00 1022.4
20260831111258 0 0.0 0.0 0.00 0.01 0.00 1022.3
20260831110758 0 0.0 0.0 0.00 0.01 0.00 1022.3
20260831110257 0 0.0 0.0 0.00 0.01 0.00 1022.5
20260831105204 0 0.0 0.0 0.00 0.01 0.00 1022.1
20260831104653 0 0.0 0.0 0.00 0.01 0.00 1022.0
20260831104153 0 0.0 0.0 0.00 0.01 0.00 1022.0
20260831103103 0 0.0 0.0 0.00 0.01 0.00 1021.8
20260831102553 0 0.0 0.0 0.00 0.01 0.00 1021.8
20260831101958 0 0.0 0.0 0.00 0.01 0.00 1021.8
20260831101455 0 0.0 0.0 0.00 0.01 0.00 1021.7
20260831100909 0 0.0 0.0 0.00 0.01 0.00 1021.7
20260831100403 0 0.0 0.0 0.00 0.01 0.00 1021.7
20260831095901 0 0.0 0.0 0.00 0.01 0.00 1021.7
20260831095401 0 0.0 0.0 0.00 0.01 0.00 1021.8
20260831094901 0 0.0 0.0 0.00 0.01 0.00 1021.8
20260831094305 0 0.0 0.0 0.00 0.01 0.00 1021.7
20260831093757 0 0.0 0.0 0.00 0.01 0.00 1021.7
20260831093253 0 0.0 0.0 0.00 0.01 0.00 1021.6
20260831092706 0 0.0 0.0 0.00 0.01 0.00 1021.6
20260831092201 0 0.0 0.0 0.00 0.01 0.00 1021.7
20260831091659 0 0.0 0.0 0.00 0.01 0.00 1021.7
20260831091152 0 0.0 0.0 0.00 0.01 0.00 1021.8
20260831090600 0 0.0 0.0 0.00 0.01 0.00 1021.8
20260831085506 0 0.0 0.0 0.00 0.01 0.00 1021.7
20260831085001 0 0.0 0.0 0.00 0.01 0.00 1021.7
20260831084457 0 0.0 0.0 0.00 0.01 0.00 1021.8
20260831083401 0 0.0 0.0 0.00 0.01 0.00 1021.6
20260831082805 0 0.0 0.0 0.00 0.01 0.00 1021.8
20260831082307 0 0.0 0.0 0.00 0.01 0.00 1021.9
20260831081800 0 0.0 0.0 0.00 0.01 0.00 1022.0
20260831080758 0 0.0 0.0 0.00 0.01 0.00 1021.7
20260831080255 0 0.0 0.0 0.00 0.01 0.00 1021.6
20260831075704 0 0.0 0.0 0.00 0.01 0.00 1021.6
20260831075155 0 0.0 0.0 0.00 0.01 0.00 1021.7
20260831074653 0 0.0 0.0 0.00 0.01 0.00 1021.7
20260831074102 0 0.0 0.0 0.00 0.01 0.00 1021.7
20260831072954 0 0.0 0.0 0.00 0.01 0.00 1021.7
20260831071306 0 0.0 0.0 0.00 0.01 0.00 1021.5
20260831070803 0 0.0 0.0 0.00 0.01 0.00 1021.6
20260831070258 0 0.0 0.0 0.00 0.01 0.00 1021.6
20260831065706 0 0.0 0.0 0.00 0.01 0.00 1021.6
20260831065202 0 0.0 0.0 0.00 0.01 0.00 1021.6
20260831064701 0 0.0 0.0 0.00 0.01 0.00 1021.6
20260831064153 0 0.0 0.0 0.00 0.01 0.00 1021.5
20260831063600 0 0.0 0.0 0.00 0.01 0.00 1021.6
20260831062457 0 0.0 0.0 0.00 0.01 0.00 1021.5
20260831060850 0 0.0 0.0 0.00 0.01 0.00 1021.4
20260831060254 0 0.0 0.0 0.00 0.01 0.00 1021.7
20260831055659 0 0.0 0.0 0.00 0.01 0.00 1021.5
20260831055156 0 0.0 0.0 0.00 0.01 0.00 1021.3
20260831054559 0 0.0 0.0 0.00 0.01 0.00 1021.3
20260831054100 0 0.0 0.0 0.00 0.01 0.00 1021.5
20260831053504 0 0.0 0.0 0.00 0.01 0.00 1021.1
20260831052454 0 0.0 0.0 0.00 0.01 0.00 1021.3
20260831050803 0 0.0 0.0 0.00 0.01 0.00 1021.2
20260831050252 0 0.0 0.0 0.00 0.01 0.00 1021.1
20260831045158 0 0.0 0.0 0.00 0.01 0.00 1021.0
20260831044011 0 0.0 0.0 0.00 0.01 0.00 1021.1
20260831043457 0 0.0 0.0 0.00 0.01 0.00 1021.0
20260831042457 0 0.0 0.0 0.00 0.01 0.00 1021.1
20260831041959 0 0.0 0.0 0.00 0.01 0.00 1021.1
20260831040851 0 0.0 0.0 0.00 0.01 0.00 1021.1
20260831040257 0 0.0 0.0 0.00 0.01 0.00 1021.1
20260831035759 0 0.0 0.0 0.00 0.01 0.01 1021.2
20260831035256 0 0.0 0.0 0.00 0.01 0.01 1021.2
20260831034704 0 0.0 0.0 0.00 0.01 0.01 1021.1
20260831034159 0 0.0 0.0 0.00 0.01 0.01 1021.2
20260831033602 0 0.0 0.0 0.00 0.01 0.01 1021.3
20260831033104 0 0.0 0.0 0.00 0.01 0.01 1021.5
20260831032511 0 0.0 0.0 0.00 0.01 0.01 1021.5
20260831031957 0 0.0 0.0 0.00 0.01 0.01 1021.4
20260831031404 0 0.0 0.0 0.00 0.01 0.01 1021.3
20260831030902 0 0.0 0.0 0.00 0.01 0.01 1021.5
20260831030308 0 0.0 0.0 0.00 0.01 0.01 1021.5
20260831024656 0 0.0 0.0 0.00 0.01 0.01 1021.5
20260831024110 0 0.0 0.0 0.00 0.01 0.01 1021.6
20260831023606 0 0.0 0.0 0.00 0.01 0.01 1021.6
20260831023102 0 0.0 0.0 0.00 0.01 0.01 1021.7
20260831022558 0 0.0 0.0 0.00 0.01 0.01 1021.7
20260831022057 0 0.0 0.0 0.00 0.01 0.01 1021.7
20260831021459 0 0.0 0.0 0.00 0.01 0.01 1021.6
20260831020910 0 0.0 0.0 0.00 0.01 0.01 1021.6
20260831015859 0 0.0 0.0 0.00 0.01 0.01 1021.5
20260831014757 0 0.0 0.0 0.00 0.01 0.01 1021.2
20260831013658 0 0.0 0.0 0.00 0.01 0.01 1021.1
20260831013157 0 0.0 0.0 0.00 0.01 0.01 1021.1
20260831012603 0 0.0 0.0 0.00 0.01 0.01 1021.0
20260831012059 0 0.0 0.0 0.00 0.01 0.01 1021.0
20260831011551 0 0.0 0.0 0.00 0.01 0.01 1020.9
20260831011002 0 0.0 0.0 0.00 0.01 0.01 1020.9
20260831010500 0 0.0 0.0 0.01 0.01 0.01 1020.9
20260831005959 0 0.0 0.0 0.01 0.01 0.01 1020.8
20260831005410 0 0.0 0.0 0.01 0.01 0.01 1020.9
20260831004301 0 0.0 0.0 0.01 0.01 0.01 1020.7
20260831002716 70 127 0.0 0.0 0.01 0.01 0.01 94 1020.7
20260831002213 70 126 0.0 0.0 0.01 0.01 0.01 93 1020.6
20260831001714 70 126 0.0 0.0 0.01 0.01 0.01 93 1020.6
20260831001216 70 126 0.0 0.0 0.01 0.01 0.01 93 1020.4
20260831000714 70 126 0.0 0.0 0.00 0.00 0.00 93 1020.4
20260830235713 71 126 0.0 1.0 0.00 0.00 0.00 92 1020.4
20260830235215 71 126 0.0 1.0 0.00 0.00 0.00 92 1020.3
20260830234710 71 126 0.0 1.0 0.00 0.00 0.00 91 1020.3
20260830234210 71 126 0.0 0.0 0.00 0.00 0.00 91 1020.1
20260830233709 71 126 0.0 0.0 0.00 0.00 0.00 91 1020.1
20260830233210 71 126 0.0 0.0 0.00 0.00 0.00 91 1020.1
20260830232711 71 126 0.0 0.0 0.00 0.00 0.00 90 1020.1
20260830231709 71 126 0.0 0.0 0.00 0.00 0.00 90 1020.1
20260830231210 72 126 0.0 0.0 0.00 0.00 0.00 90 1020.0
20260830230211 72 126 0.0 0.0 0.00 0.00 0.00 89 1019.9
20260830225710 72 126 0.0 0.0 0.00 0.00 0.00 89 1020.2
20260830224711 72 126 0.0 0.0 0.00 0.00 0.00 89 1020.1
20260830223710 72 126 0.0 0.0 0.00 0.00 0.00 88 1020.3
20260830223211 72 126 0.0 0.0 0.00 0.00 0.00 88 1020.2
20260830222207 73 126 0.0 0.0 0.00 0.00 0.00 88 1020.2
20260830221705 73 126 0.0 1.0 0.00 0.00 0.00 88 1020.1
20260830221204 73 126 0.0 1.0 0.00 0.00 0.00 88 1020.2
20260830220658 73 126 0.0 1.0 0.00 0.00 0.00 87 1020.2
20260830220152 73 126 0.0 0.0 0.00 0.00 0.00 87 1020.2
20260830215646 73 125 0.0 0.0 0.00 0.00 0.00 87 1020.2
20260830215139 73 125 0.0 0.0 0.00 0.00 0.00 87 1020.1
20260830214634 73 125 0.0 0.0 0.00 0.00 0.00 87 1020.2
20260830214129 73 125 0.0 0.0 0.00 0.00 0.00 87 1020.2
20260830213622 73 125 0.0 1.0 0.00 0.00 0.00 87 1020.1
20260830213116 73 125 0.0 1.0 0.00 0.00 0.00 87 1020.1
20260830212611 73 125 0.0 1.0 0.00 0.00 0.00 86 1020.1
20260830212104 73 125 0.0 1.0 0.00 0.00 0.00 86 1020.1
20260830211558 73 125 0.0 1.0 0.00 0.00 0.00 86 1020.0
20260830211052 73 125 0.0 1.0 0.00 0.00 0.00 86 1020.1